When you browse on this site, cookies collect data to enhance your experience and personalize the content and advertising you see.
Visit our Privacy Policy to learn more. By continuing to use the site, you agree to this use of cookies and data.
  • In Hungary
  • List of Countries
  • For 7 days
  • Water Temperature
  • Weather Map
  • News
  • Weather Widgets
  • user-avatar
    Login

    Hourly Weather Sinegorskiy

    Today, 19 January, Sunday

    Time Temperature Precipitation Wind Pressure Humidity
    00:00 -13°C° 0 mm 1 mps 732 mmHg 88%
    01:00 -14°C° 0 mm 1 mps 732 mmHg 88%
    02:00 -15°C° 0 mm 1 mps 732 mmHg 88%
    03:00 -15°C° 0 mm 1 mps 733 mmHg 88%
    04:00 -16°C° 0 mm 0 mps 733 mmHg 91%
    05:00 -16°C° 0 mm 1 mps 733 mmHg 89%
    06:00 -16°C° 0 mm 1 mps 733 mmHg 87%
    07:00 -16°C° 0 mm 1 mps 733 mmHg 85%
    08:00 -15°C° 0 mm 1 mps 733 mmHg 83%
    09:00 -14°C° 0 mm 1 mps 733 mmHg 80%
    10:00 -13°C° 0 mm 1 mps 734 mmHg 77%
    11:00 -12°C° 0 mm 1 mps 733 mmHg 77%
    12:00 -11°C° 0 mm 1 mps 733 mmHg 78%
    13:00 -10°C° 0 mm 1 mps 733 mmHg 78%
    14:00 -9°C° 0.1 mm 1 mps 733 mmHg 84%
    15:00 -9°C° 0.1 mm 1 mps 732 mmHg 89%
    16:00 -9°C° 0 mm 1 mps 732 mmHg 95%
    17:00 -8°C° 0.6 mm 1 mps 732 mmHg 95%
    18:00 -8°C° 0.6 mm 1 mps 731 mmHg 95%
    19:00 -8°C° 0.6 mm 1 mps 731 mmHg 96%
    20:00 -8°C° 0.3 mm 1 mps 730 mmHg 96%
    21:00 -8°C° 0.3 mm 1 mps 730 mmHg 96%
    22:00 -7°C° 0.3 mm 1 mps 730 mmHg 97%
    23:00 -7°C° 0.2 mm 1 mps 729 mmHg 97%

    Tomorrow, 20 January, Monday

    Time Temperature Precipitation Wind Pressure Humidity
    00:00 -8°C° 0.2 mm 1 mps 729 mmHg 97%
    01:00 -8°C° 0.2 mm 1 mps 729 mmHg 97%
    02:00 -8°C° 0.3 mm 1 mps 729 mmHg 96%
    03:00 -8°C° 0.3 mm 1 mps 728 mmHg 96%
    04:00 -8°C° 0.3 mm 1 mps 728 mmHg 96%
    05:00 -10°C° 0.3 mm 2 mps 728 mmHg 95%
    06:00 -12°C° 0.3 mm 2 mps 728 mmHg 95%
    07:00 -12°C° 0.3 mm 2 mps 727 mmHg 95%
    08:00 -13°C° 0.2 mm 2 mps 727 mmHg 94%
    09:00 -14°C° 0.2 mm 3 mps 727 mmHg 94%
    10:00 -15°C° 0.2 mm 3 mps 728 mmHg 93%
    11:00 -15°C° 0.1 mm 3 mps 728 mmHg 93%
    12:00 -14°C° 0.1 mm 2 mps 728 mmHg 93%
    13:00 -14°C° 0.1 mm 2 mps 728 mmHg 92%
    14:00 -15°C° 0 mm 2 mps 728 mmHg 93%
    15:00 -15°C° 0 mm 2 mps 728 mmHg 95%
    16:00 -16°C° 0 mm 2 mps 728 mmHg 96%
    17:00 -16°C° 0 mm 2 mps 728 mmHg 96%
    18:00 -17°C° 0 mm 2 mps 727 mmHg 96%
    19:00 -18°C° 0 mm 2 mps 727 mmHg 97%
    20:00 -16°C° 0 mm 1 mps 727 mmHg 97%
    21:00 -17°C° 0 mm 1 mps 727 mmHg 98%
    22:00 -18°C° 0 mm 1 mps 727 mmHg 98%
    23:00 -19°C° 0 mm 1 mps 727 mmHg 99%

    Day after tomorrow, 21 January, Tuesday

    Time Temperature Precipitation Wind Pressure Humidity
    00:00 -19°C° 0 mm 1 mps 726 mmHg 99%
    01:00 -20°C° 0 mm 0 mps 726 mmHg 99%
    02:00 -20°C° 0 mm 0 mps 726 mmHg 99%
    03:00 -20°C° 0 mm 0 mps 726 mmHg 99%
    04:00 -20°C° 0 mm 0 mps 726 mmHg 99%
    05:00 -20°C° 0 mm 0 mps 725 mmHg 99%
    06:00 -19°C° 0 mm 1 mps 725 mmHg 99%
    07:00 -19°C° 0 mm 1 mps 725 mmHg 98%
    08:00 -18°C° 0 mm 1 mps 724 mmHg 98%
    09:00 -17°C° 0 mm 1 mps 724 mmHg 97%
    10:00 -16°C° 0 mm 1 mps 724 mmHg 96%
    11:00 -14°C° 0 mm 1 mps 724 mmHg 95%
    12:00 -12°C° 0 mm 1 mps 723 mmHg 94%
    13:00 -12°C° 0 mm 2 mps 723 mmHg 93%
    14:00 -12°C° 0 mm 2 mps 722 mmHg 94%
    15:00 -13°C° 0 mm 2 mps 722 mmHg 95%
    16:00 -13°C° 0 mm 2 mps 722 mmHg 96%
    17:00 -13°C° 0 mm 2 mps 721 mmHg 96%
    18:00 -12°C° 0 mm 2 mps 720 mmHg 95%
    19:00 -13°C° 0 mm 3 mps 719 mmHg 95%
    20:00 -12°C° 0 mm 3 mps 719 mmHg 94%
    21:00 -12°C° 0 mm 4 mps 718 mmHg 93%
    22:00 -11°C° 0 mm 4 mps 717 mmHg 92%
    23:00 -11°C° 0 mm 4 mps 716 mmHg 92%

    22 January, Wednesday

    Time Temperature Precipitation Wind Pressure Humidity
    00:00 -11°C° 0 mm 4 mps 715 mmHg 91%
    01:00 -12°C° 0 mm 5 mps 714 mmHg 91%
    02:00 -12°C° 0.1 mm 5 mps 713 mmHg 91%
    03:00 -11°C° 0.1 mm 5 mps 712 mmHg 90%
    04:00 -11°C° 0.1 mm 5 mps 711 mmHg 90%
    05:00 -11°C° 0.1 mm 5 mps 710 mmHg 90%
    06:00 -11°C° 0.1 mm 5 mps 709 mmHg 90%
    07:00 -10°C° 0.1 mm 5 mps 708 mmHg 90%
    08:00 -10°C° 0.1 mm 5 mps 708 mmHg 90%
    09:00 -10°C° 0.1 mm 5 mps 707 mmHg 89%
    10:00 -10°C° 0.1 mm 5 mps 707 mmHg 89%
    11:00 -8°C° 0 mm 5 mps 706 mmHg 89%
    12:00 -8°C° 0 mm 5 mps 706 mmHg 89%
    13:00 -7°C° 0 mm 5 mps 705 mmHg 89%
    14:00 -7°C° 0.1 mm 4 mps 705 mmHg 90%
    15:00 -7°C° 0.1 mm 4 mps 705 mmHg 92%
    16:00 -7°C° 0.1 mm 4 mps 704 mmHg 93%
    17:00 -8°C° 0.2 mm 4 mps 704 mmHg 93%
    18:00 -8°C° 0.2 mm 4 mps 704 mmHg 93%
    19:00 -8°C° 0.2 mm 5 mps 704 mmHg 92%
    20:00 -9°C° 0 mm 4 mps 704 mmHg 92%
    21:00 -9°C° 0 mm 4 mps 704 mmHg 92%
    22:00 -10°C° 0 mm 4 mps 704 mmHg 92%
    23:00 -10°C° 0.1 mm 4 mps 704 mmHg 92%

    23 January, Thursday

    Time Temperature Precipitation Wind Pressure Humidity
    00:00 -10°C° 0.1 mm 4 mps 704 mmHg 92%
    01:00 -10°C° 0.1 mm 4 mps 704 mmHg 92%
    02:00 -10°C° 0.1 mm 4 mps 704 mmHg 92%
    03:00 -11°C° 0.1 mm 5 mps 705 mmHg 92%
    04:00 -11°C° 0.1 mm 5 mps 705 mmHg 92%
    05:00 -11°C° 0.1 mm 5 mps 705 mmHg 91%
    06:00 -11°C° 0.1 mm 5 mps 706 mmHg 90%
    07:00 -11°C° 0.1 mm 5 mps 706 mmHg 89%
    08:00 -12°C° 0 mm 5 mps 706 mmHg 89%
    09:00 -12°C° 0 mm 5 mps 707 mmHg 88%
    10:00 -12°C° 0 mm 5 mps 707 mmHg 88%
    11:00 -12°C° 0 mm 5 mps 708 mmHg 88%
    12:00 -12°C° 0 mm 5 mps 708 mmHg 89%
    13:00 -12°C° 0 mm 5 mps 709 mmHg 89%
    14:00 -11°C° 0 mm 4 mps 709 mmHg 89%
    15:00 -11°C° 0 mm 4 mps 709 mmHg 90%
    16:00 -12°C° 0 mm 4 mps 710 mmHg 90%
    17:00 -12°C° 0 mm 4 mps 710 mmHg 91%
    18:00 -12°C° 0 mm 4 mps 711 mmHg 91%
    19:00 -14°C° 0 mm 4 mps 711 mmHg 92%
    20:00 -14°C° 0 mm 4 mps 711 mmHg 92%
    21:00 -13°C° 0 mm 3 mps 712 mmHg 92%
    22:00 -13°C° 0 mm 3 mps 712 mmHg 93%
    23:00 -15°C° 0 mm 4 mps 712 mmHg 92%

    24 January, Friday

    Time Temperature Precipitation Wind Pressure Humidity
    00:00 -15°C° 0 mm 4 mps 713 mmHg 92%
    01:00 -15°C° 0 mm 4 mps 713 mmHg 92%
    02:00 -16°C° 0 mm 4 mps 713 mmHg 91%
    03:00 -16°C° 0 mm 4 mps 714 mmHg 91%
    04:00 -16°C° 0 mm 4 mps 714 mmHg 91%
    05:00 -17°C° 0 mm 4 mps 714 mmHg 92%
    06:00 -18°C° 0 mm 4 mps 714 mmHg 92%
    07:00 -18°C° 0 mm 4 mps 714 mmHg 93%
    08:00 -18°C° 0 mm 4 mps 714 mmHg 92%
    09:00 -18°C° 0 mm 4 mps 715 mmHg 92%
    10:00 -17°C° 0 mm 4 mps 715 mmHg 91%
    11:00 -17°C° 0 mm 4 mps 715 mmHg 90%
    12:00 -16°C° 0 mm 4 mps 715 mmHg 89%
    13:00 -15°C° 0 mm 4 mps 715 mmHg 88%
    14:00 -16°C° 0 mm 4 mps 716 mmHg 89%
    15:00 -16°C° 0 mm 4 mps 716 mmHg 89%
    16:00 -17°C° 0 mm 4 mps 716 mmHg 90%
    17:00 -17°C° 0 mm 4 mps 716 mmHg 91%
    18:00 -18°C° 0 mm 4 mps 716 mmHg 91%
    19:00 -19°C° 0 mm 4 mps 716 mmHg 91%
    20:00 -19°C° 0 mm 4 mps 716 mmHg 92%
    21:00 -18°C° 0 mm 4 mps 717 mmHg 92%
    22:00 -18°C° 0 mm 4 mps 717 mmHg 92%
    23:00 -18°C° 0 mm 4 mps 717 mmHg 92%
    Show more